Regional Weather Roundup
Issued by NWS

Home | Current Version | Previous Version | Text Only | Print | Product List | Glossary On
Versions: 1 2 3 4 5 6 7 8 9 10 11 12 13 14 15 16 17 18 19 20 21 22 23 24 25 26 27 28 29 30 31 32 33 34 35 36 37 38 39 40 41 42 43 44 45 46 47 48 49 50
000
ASUS45 KBOU 261707
RWRCO

WEATHER ROUNDUP FOR COLORADO
NATIONAL WEATHER SERVICE DENVER/BOULDER CO
1000 AM MST WED NOV 26 2014

NOTE: "FAIR" INDICATES FEW OR NO CLOUDS BELOW 12000 FEET WITH NO
SIGNIFICANT WEATHER AND/OR OBSTRUCTIONS TO VISIBILITY.

COZ001>005-013-030-031-261800-
...NORTHWEST COLORADO...

CITY           SKY/WX    TMP DP  RH WIND       PRES   REMARKS
CRAIG          MOSUNNY   39  28  64 CALM      30.33R
HAYDEN         CLOUDY    37  27  65 W9        30.32R
MEEKER         SUNNY     37  26  64 CALM      30.37R
MOUNT WERNER   NOT AVBL
STEAMBOAT SPGS CLOUDY    36  29  78 CALM      30.33R
WALDEN         CLOUDY    34  27  75 W18G26    30.23R WCI  23
$$

COZ006>008-011-261800-
...WEST CENTRAL VALLEYS...

CITY           SKY/WX    TMP DP  RH WIND       PRES   REMARKS
GRAND JUNCTION SUNNY     35  20  54 CALM      30.42R
MONTROSE       SUNNY     44  24  45 N3        30.41S
EAGLE          PTSUNNY   37  25  60 W17       30.38R
RIFLE          SUNNY     30  23  75 CALM      30.42R
DELTA          SUNNY     43  21  42 CALM      30.42R
NUCLA          SUNNY     39  27  60 CALM      30.46R
$$

COZ017>023-064>068-261800-
...SOUTHWEST COLORADO...

CITY           SKY/WX    TMP DP  RH WIND       PRES   REMARKS
DURANGO        SUNNY     33  16  49 VRB6      30.37R WCI  28
CORTEZ         SUNNY     49  27  42 NE5       30.39S
PAGOSA SPRINGS SUNNY     35  14  43 CALM      30.39R
TELLURIDE      NOT AVBL
WOLF CREEK PAS SUNNY     30  16  55 MISG      30.42R
$$

COZ009-010-012-014-032>034-037-058>063-261800-
...CENTRAL COLORADO...

CITY           SKY/WX    TMP DP  RH WIND       PRES   REMARKS
ASPEN          CLOUDY    32  25  75 CALM      30.38R
BUENA VISTA    MOSUNNY   46  21  37 NW6       30.24S
COPPER MTN     CLOUDY    27  21  80 W41G49    30.31F WCI   8
BERTHOUD PASS  NOT AVBL
COTTONWOOD PAS MOSUNNY   37  21  52 W24G48    30.25S
GUNNISON       SUNNY     37  27  65 E3        30.40S
KREMMLING      CLOUDY    36  27  69 W16G28    30.32R
LEADVILLE      CLOUDY    27  22  81 NW17G29   30.34R WCI  14
MONARCH PASS   CLOUDY    21  19  93 MISG      30.41S
SALIDA         MOSUNNY   49  22  34 W24G33    30.30S
SUNLIGHT       CLOUDY   N/A N/A N/A SW3       30.42R
WILKERSON PASS MOSUNNY   30  19  64 NW13G33   30.28R WCI  20
$$

COZ069>075-261800-
...SAN LUIS VALLEY/SANGRE DE CRISTO MOUNTAINS...

CITY           SKY/WX    TMP DP  RH WIND       PRES   REMARKS
ALAMOSA        SUNNY     36  17  46 E5        30.33R
LA VETA PASS   SUNNY     32  21  64 SW13G25   30.28R WCI  22
SAGUACHE       NOT AVBL
$$

COZ035-036-038>040-261800-
...NORTHERN COLORADO FRONT RANGE...

CITY           SKY/WX    TMP DP  RH WIND       PRES   REMARKS
DENVER INTL AP MOSUNNY   32  21  64 E12       30.19F WCI  23
DMNS CITY PARK   N/A     35  21  58 SE5G12    30.18F WCI  31
AURORA         MOSUNNY   32  21  63 E12       30.19F WCI  23
FRONT RANGE AP NOT AVBL
ERIE MUNI ARPT SUNNY     34  22  63 SE7       30.20S WCI  28
BOULDER MUN AP SUNNY     34  23  64 SE3       30.18F
CENTENNIAL     MOSUNNY   32  21  64 SE10      30.17R WCI  24
BROOMFIELD     MOSUNNY   32  25  74 E10       30.18S WCI  24
FORT COLLINS   MOSUNNY   34  21  60 S6        30.23R WCI  29
LONGMONT       MOSUNNY   38  23  55 E8        30.23F
$$

COZ041-046-047-076>085-087-088-261800-
...PIKES PEAK/PALMER DIVIDE AND SOUTHERN FOOTHILLS...

CITY           SKY/WX    TMP DP  RH WIND       PRES   REMARKS
COLO. SPRINGS  PTSUNNY   31  24  75 SE12      30.20F WCI  22
A. F. ACADEMY  CLOUDY    27  24  86 SE7       30.19S WCI  20
ELLICOTT       NOT AVBL
FALCON         NOT AVBL
FORT CARSON    PTSUNNY   31  25  78 SE15      30.19F WCI  21
LIMON          CLOUDY    29  22  75 W5        30.23S WCI  24
MONUMENT HILL  SUNNY     32  28  86 S6        30.15R WCI  26
TRINIDAD       SUNNY     32  25  75 S7        30.24R WCI  26
$$

COZ042>045-048>051-090-091-261800-
...NORTHEAST COLORADO...

CITY           SKY/WX    TMP DP  RH WIND       PRES   REMARKS
GREELEY ARPT   SUNNY     32  19  59 E6        30.24R WCI  26
AKRON          LGT SNOW  28  26  92 NW7       30.24S VSB 1   WCI  21
BURLINGTON     CLOUDY    32  25  75 NW16      30.26R WCI  21
WRAY           LGT SNOW  33  30  92 NW9       30.27R WCI  25
STERLING       LGT SNOW  32  32 100 N6        30.25S VSB 3/4 WCI  26
HOLYOKE        LGT SNOW  34  30  86 N8        30.26S WCI  27
FORT MORGAN    CLOUDY    32  23  69 NW3       30.25F
$$

COZ086-089-092>099-261800-
...SOUTHEAST COLORADO...

CITY           SKY/WX    TMP DP  RH WIND       PRES   REMARKS
PUEBLO         MOSUNNY   36  25  64 S12       30.24F
LA JUNTA       SUNNY     38  25  59 CALM      30.28S
LAMAR          SUNNY     40  22  48 N9        30.27S
SPRINGFIELD      N/A     38  23  55 NW13      30.25F
$$



USA.gov is the U.S. government's official web portal to all federal, state and local government web resources and services.